COSMOS 2251 DEB, 34911

Orbit data source: Space-Track

COSMOS 2251 DEB, 34911 is space debris in LEO originally from a launch on Wed, 16 Jun 1993 UTC launched from the Plesetsk Missile And Space Complex (PKMTR). The debris from Iridium 33, an American commercial communications satellite, has been tracked extensively since its accidental collision with the defunct Russian satellite Cosmos 2251 in 2009. This event, occurring at high speed in low Earth orbit (LEO), generated thousands of pieces of space debris, significantly increasing the risk of further collisions. The Iridium 33 debris cloud has impacted space traffic management and orbital debris mitigation strategies, making it a subject of ongoing study in space situational awareness.

Loading next visibility...
Identifier
34911, 1993-036ADG
Orbit
LEO
Country
Flag of CISCIS
Related business
Manufacturer
Unknown
Mission
Spacecraft
Bus & Motor
Unknown
Mass
Unknown
Launch date (UTC)
1993-06-16 (33 years ago)
Launch vehicle
Unknown
Launch site
Plesetsk Missile And Space Complex (PKMTR)
Object type
Payload
Rocket body
Debris
Shape & HBR
Unknown shape, 0.1 m
Radar Cross Section
Small (<0.1 m²)

Expand to show TLE details & history
Last TLE update: 9 hours ago

TLE from 9 hours ago
0 COSMOS 2251 DEB
1 34911U 93036ADG 26123.05161734  .00000539  00000-0  11432-3 0  9991
2 34911  74.0413 335.3738 0082721  65.4543  88.4482 14.59582454906486
Epoch: 2026-05-03T01:14Z
TLE epoch observation values (Epoch: 2026-05-03T01:14:19.738Z)
Latitude
24.14883°
Longitude
-91.49555°
Altitude
696.058 km
Speed
7.511 km/s
True Right ascension
09h 52m 11s
True Declination
24° 01' 11"
Sunlit
Object was in daylight at epoch
Visualization orbit readout
Latitude
Unknown
Longitude
Unknown
Altitude
Unknown
Speed
Unknown
Apparent Right ascension
Unknown
Apparent Declination
Unknown
Sunlit
N/A
Visualization observer readout
Local Sidereal Time
17:54:54
Azimuth
Unknown
Elevation
Unknown
Doppler factor
Unknown
Orbital elements
Apogee altitude
750.606 km
Perigee altitude
633.634 km
Semi-major axis
7,070.257 km
Eccentricity
0.00827
Inclination
74.0413°
RAAN
335.3738°
Arg. of periapsis
65.4543°
True anomaly
89.39599°
Mean anomaly
88.4482°
Eccentric anomaly
88.92207°
Mean motion
3.65082 °/min
Orbital period
98.61 mins
BSTAR
0.00011432

Documentation

Showing up to 5 results
|